NOAA 16 DEB

Satellite information

Favourite Embed

Satellite Type and Status

DEBRISIN ORBIT

Key statistics

Satellite NOAA 16 DEB at a glance.

Uptime

9214

Days in orbit

Revolutions

≈ 14.1

Per day

Orbit

SSO

Sun Synchronous Orbit

Inclination

98.8

Latest

Satellite identification and parameters

Extended collection of information and parameters for NOAA 16 DEB.

Object identification

Identified? True

Debris? True

Object name: NOAA 16 DEB

International designator: 2000-055RF

Object number (NORAD): 42363

Object ID (CCSDS): 42363

Country: UNITED STATES OF AMERICA (US)

Current information (Y/N): Y

RCS size: SMALL

Orbital parameters

Period: 101.924 minutes

Inclination: 98.7954 deg

SMA: 7227.907 km

Apoapsis: 894.696 km

Periapsis: 804.847 km

RAAN: 328.9464 deg

Eccentricy: 0.00621545

Argument of periapsis: 251.1436 deg

Mean anomaly: 108.299 deg

Mean motion: 14.12810608 rev/day

Mean motion (dot): 0.00004716 rev/day2

B* drag term: 0.0025141421 1/REarth

Two-line elements (TLE)

Creation date: Nov. 25, 2025, 3:42 a.m.

Reference frame: TEME

Reference center: EARTH

Epoch: Nov. 24, 2025, 5:05 p.m. UTC

TLE line 0: 0 NOAA 16 DEB

TLE line 1: 1 42363U 00055RF 25328.71246551 .00004716 00000-0 25141-2 0 9992

TLE line 2: 2 42363 98.7954 328.9464 0062154 251.1436 108.2990 14.12810608499538

Live tracking on map

Real-time ground track for satellite NOAA 16 DEB.

In-orbit conjunctions

A list of the most updated potential collisions computed for object NOAA 16 DEB.

Target Orbit TCA Probability of collision Miss distance Type
FENGYUN 1C DEB SSO 2025-09-03 18:50:45 0.0001068209 461.0 (m) DEBRIS
CZ-6A DEB LEO 2025-06-29 10:49:58 0.0001180061 178.0 (m) DEBRIS
GGSE 5 LEO 2025-02-16 09:00:45 0.000700064 402.0 (m) PAYLOAD

Associated space launch

The NOAA K, L and M POES satellites begin the fifth generation of improved environmental monitoring in support of NOAA missions. The instrument payload has significant improvements and additions/deletions. The instrument changes have effected the spacecraft subsystems and data formats.

NOAA 16 DEB was lifted into orbit during the mission ‘Titan II SLV | NOAA 16’, on board a Titan II SLV space rocket.

The launch took place on Sept. 21, 2000, 10:22 a.m. from Space Launch Complex 4W.

For more information about the launch, click the button.

Launch to space Titan II SLV | NOAA 16
Titan II SLV | NOAA 16

Agency: N/A

Status: Launch Successful

Launch date: Sept. 21, 2000, 10:22 a.m. UTC

Rocket: Titan II SLV

Launch pad: Space Launch Complex 4W

Location: Vandenberg SFB, CA, USA

...

Latest news about this satellite

There are no fresh news available about this satellite. Check back as we update our databases every day.


Newsletter sign-up

Weekly statistics, charts and insights to help you stay on top of the space industry.